Cas;Teplota [C];Tlak [hPa];Svetlo [lux];Rychlost vetru [km/h];Smer vetru [stupne]
2022-10-02 00:00:01;7.73;1010.73;6;0;0
2022-10-02 00:01:01;7.73;1010.7;6;0;0
2022-10-02 00:02:02;7.66;1010.72;6;0;0
2022-10-02 00:03:01;7.63;1010.8;5;0;0
2022-10-02 00:04:01;7.63;1010.93;5;0;0
2022-10-02 00:05:01;7.58;1010.94;6;0;0
2022-10-02 00:06:01;7.6;1010.89;5;0;0
2022-10-02 00:07:01;7.72;1010.98;6;0;0
2022-10-02 00:08:01;7.7;1011;5;0;0
2022-10-02 00:09:02;7.75;1011.03;6;0;0
2022-10-02 00:10:01;7.7;1011.09;6;0;0
2022-10-02 00:11:01;7.47;1011.1;6;0;0
2022-10-02 00:12:01;7.37;1011.09;5;0;0
2022-10-02 00:13:01;7.51;1011.17;5;0;0
2022-10-02 00:14:01;7.65;1011.11;5;0;0
2022-10-02 00:15:02;7.4;1011.26;5;0;0
2022-10-02 00:16:01;7.55;1011.17;5;0;0
2022-10-02 00:17:01;7.52;1011.22;5;0;0
2022-10-02 00:18:01;7.55;1011.18;5;0;0
2022-10-02 00:19:01;7.67;1011.26;5;0;0
2022-10-02 00:20:01;7.57;1011.29;4;0;0
2022-10-02 00:21:01;7.64;1011.35;6;0;0
2022-10-02 00:22:01;7.66;1011.39;7;0;0
2022-10-02 00:23:01;7.78;1011.38;5;0;0
2022-10-02 00:24:01;7.59;1011.37;6;0;0
2022-10-02 00:25:02;7.6;1011.35;5;0;0
2022-10-02 00:26:02;7.57;1011.42;5;0;0
2022-10-02 00:27:01;7.67;1011.45;5;0;0
2022-10-02 00:28:01;7.72;1011.51;5;0;0
2022-10-02 00:29:01;7.66;1011.46;5;0;0
2022-10-02 00:30:01;7.8;1011.37;5;0;0
2022-10-02 00:31:01;7.75;1011.41;5;0;0
2022-10-02 00:32:01;7.59;1011.44;5;0;0
2022-10-02 00:33:01;7.88;1011.42;5;0;0
2022-10-02 00:34:01;7.52;1011.43;4;0;0
2022-10-02 00:35:01;7.6;1011.52;5;0;0
2022-10-02 00:36:02;7.69;1011.49;5;0;0
2022-10-02 00:37:01;7.58;1011.45;5;0;0
2022-10-02 00:38:01;7.59;1011.54;6;0;0
2022-10-02 00:39:01;7.63;1011.45;5;0;0
2022-10-02 00:40:01;7.57;1011.54;5;0;0
2022-10-02 00:41:01;7.67;1011.57;5;0;0
2022-10-02 00:42:01;7.47;1011.6;4;0;0
2022-10-02 00:43:01;7.69;1011.64;5;0;0
2022-10-02 00:44:01;7.66;1011.64;4;0;0
2022-10-02 00:45:01;7.52;1011.67;5;0;0
2022-10-02 00:46:02;7.55;1011.65;5;0;0
2022-10-02 00:47:01;7.63;1011.7;4;0;0
2022-10-02 00:48:01;7.62;1011.76;5;0;0
2022-10-02 00:49:01;7.76;1011.72;6;0;0
2022-10-02 00:50:01;7.67;1011.79;5;0;0
2022-10-02 00:51:01;7.64;1011.91;6;0;0
2022-10-02 00:52:01;7.62;1011.9;5;0;0
2022-10-02 00:53:02;7.77;1011.9;5;0;0
2022-10-02 00:54:01;7.75;1011.96;5;0;0
2022-10-02 00:55:01;7.5;1012.03;5;0;0
2022-10-02 00:56:01;7.69;1012.04;5;0;0
2022-10-02 00:57:01;7.45;1012.04;5;0;0
2022-10-02 00:58:01;7.76;1012.08;5;0;0
2022-10-02 00:59:01;7.88;1012.14;6;0;0
2022-10-02 01:00:01;7.87;1012.2;5;0;0
2022-10-02 01:01:01;7.72;1012.08;5;0;0
2022-10-02 01:02:01;7.64;1012.06;5;0;0
2022-10-02 01:03:01;7.65;1012.06;5;0;0
2022-10-02 01:04:02;7.84;1012.08;5;0;0
2022-10-02 01:05:01;7.66;1011.95;6;0;0
2022-10-02 01:06:01;7.76;1011.95;5;0;0
2022-10-02 01:07:01;7.67;1011.99;5;0;0
2022-10-02 01:08:01;7.69;1012.06;5;0;0
2022-10-02 01:09:01;7.75;1012.21;5;0;0
2022-10-02 01:10:02;7.79;1012.13;5;0;0
2022-10-02 01:11:01;7.64;1012.06;5;0;0
2022-10-02 01:12:01;7.88;1012.12;5;0;0
2022-10-02 01:13:01;7.76;1012.25;5;0;0
2022-10-02 01:14:01;7.71;1012.23;5;0;0
2022-10-02 01:15:01;7.68;1012.17;6;0;0
2022-10-02 01:16:01;7.82;1012.19;5;0;0
2022-10-02 01:17:01;7.72;1012.24;5;0;0
2022-10-02 01:18:01;7.75;1012.31;5;0;0
2022-10-02 01:19:02;7.76;1012.15;5;0;0
2022-10-02 01:20:01;7.76;1012.13;5;0;0
2022-10-02 01:21:01;7.81;1012.14;5;0;0
2022-10-02 01:22:01;8.07;1012.19;5;0;0
2022-10-02 01:23:01;7.77;1012.2;5;0;0
2022-10-02 01:24:01;7.9;1012.26;6;0;0
2022-10-02 01:25:01;7.95;1012.24;5;0;0
2022-10-02 01:26:01;8.03;1012.21;5;0;0
2022-10-02 01:27:02;7.99;1012.28;6;0;0
2022-10-02 01:28:01;7.99;1012.25;5;0;0
2022-10-02 01:29:01;8.09;1012.24;5;0;0
2022-10-02 01:30:01;8.04;1012.34;4;0;0
2022-10-02 01:31:01;8.03;1012.31;5;0;0
2022-10-02 01:32:01;8.05;1012.23;4;0;0
2022-10-02 01:33:01;8.2;1012.37;5;0;0
2022-10-02 01:34:01;8.17;1012.35;5;0;0
2022-10-02 01:35:01;8.24;1012.41;5;0;0
2022-10-02 01:36:01;8.14;1012.38;4;0;0
2022-10-02 01:37:01;8.09;1012.39;6;0;0
2022-10-02 01:38:01;8.05;1012.45;5;0;0
2022-10-02 01:39:01;8.17;1012.48;4;0;0
2022-10-02 01:40:01;8.11;1012.49;6;0;0
2022-10-02 01:41:01;7.94;1012.39;5;0;0
2022-10-02 01:42:01;8.03;1012.47;4;0;0
2022-10-02 01:43:02;8;1012.45;5;0;0
2022-10-02 01:44:01;8.08;1012.45;5;0;0
2022-10-02 01:45:01;7.96;1012.46;4;0;0
2022-10-02 01:46:01;7.99;1012.44;5;0;0
2022-10-02 01:47:02;8.06;1012.51;5;0;0
2022-10-02 01:48:01;7.98;1012.5;4;0;0
2022-10-02 01:49:01;7.95;1012.6;4;0;0
2022-10-02 01:50:01;8.02;1012.58;5;0;0
2022-10-02 01:51:01;8.04;1012.59;5;0;0
2022-10-02 01:52:01;8.14;1012.56;5;0;0
2022-10-02 01:53:02;8.07;1012.53;4;0;0
2022-10-02 01:54:01;8.04;1012.53;5;0;0
2022-10-02 01:55:01;8.09;1012.61;5;0;0
2022-10-02 01:56:01;8.06;1012.56;5;0;0
2022-10-02 01:57:01;8.09;1012.56;6;0;0
2022-10-02 01:58:01;8.18;1012.57;6;0;0
2022-10-02 01:59:01;8.12;1012.55;5;0;0
2022-10-02 02:00:01;8.13;1012.53;5;0;0
2022-10-02 02:01:01;8.13;1012.56;5;0;0
2022-10-02 02:02:01;8.3;1012.53;5;0;0
2022-10-02 02:03:01;8.14;1012.55;5;0;0
2022-10-02 02:04:01;8.23;1012.6;5;0;0
2022-10-02 02:05:02;8.09;1012.64;5;0;0
2022-10-02 02:06:01;8.05;1012.68;4;0;0
2022-10-02 02:07:01;8.26;1012.64;4;0;0
2022-10-02 02:08:01;8.24;1012.69;5;0;0
2022-10-02 02:09:01;8.27;1012.68;5;0;0
2022-10-02 02:10:01;8.36;1012.76;6;0;0
2022-10-02 02:11:01;8.21;1012.77;5;0;0
2022-10-02 02:12:01;8.28;1012.71;5;0;0
2022-10-02 02:13:01;8.45;1012.69;6;0;0
2022-10-02 02:14:01;8.3;1012.73;5;0;0
2022-10-02 02:15:01;8.24;1012.73;5;0;0
2022-10-02 02:16:01;8.15;1012.72;4;0;0
2022-10-02 02:17:02;8.23;1012.77;5;0;0
2022-10-02 02:18:01;8.24;1012.86;5;0;0
2022-10-02 02:19:01;8.33;1012.8;5;0;0
2022-10-02 02:20:01;8.18;1012.81;4;0;0
2022-10-02 02:21:01;8.23;1012.9;4;0;0
2022-10-02 02:22:01;8.58;1012.95;5;0;0
2022-10-02 02:23:01;8.47;1013.04;5;0;0
2022-10-02 02:24:02;8.34;1013.17;5;0;0
2022-10-02 02:25:01;8.43;1013.19;4;0;0
2022-10-02 02:26:02;8.4;1013.22;5;0;0
2022-10-02 02:27:01;8.49;1013.21;5;0;0
2022-10-02 02:28:01;8.38;1013.19;5;0;0
2022-10-02 02:29:01;8.46;1013.24;5;0;0
2022-10-02 02:30:01;8.54;1013.24;5;0;0
2022-10-02 02:31:02;8.37;1013.24;5;0;0
2022-10-02 02:32:01;8.4;1013.21;5;0;0
2022-10-02 02:33:01;8.39;1013.16;5;0;0
2022-10-02 02:34:01;8.43;1013.25;4;0;0
2022-10-02 02:35:01;8.44;1013.18;5;0;0
2022-10-02 02:36:01;8.4;1013.21;4;0;0
2022-10-02 02:37:01;8.4;1013.16;5;0;0
2022-10-02 02:38:01;8.37;1013.19;5;0;0
2022-10-02 02:39:01;8.39;1013.21;5;0;0
2022-10-02 02:40:01;8.51;1013.28;5;0;0
2022-10-02 02:41:01;8.32;1013.22;4;0;0
2022-10-02 02:42:01;8.32;1013.17;4;0;0
2022-10-02 02:43:01;8.19;1013.19;4;0;0
2022-10-02 02:44:01;8.3;1013.29;5;0;0
2022-10-02 02:45:01;8.41;1013.33;5;0;0
2022-10-02 02:46:01;8.34;1013.37;5;0;0
2022-10-02 02:47:02;8.27;1013.27;5;0;0
2022-10-02 02:48:01;8.27;1013.26;4;0;0
2022-10-02 02:49:01;8.39;1013.26;4;0;0
2022-10-02 02:50:01;8.3;1013.35;5;0;0
2022-10-02 02:51:01;8.38;1013.33;5;0;0
2022-10-02 02:52:01;8.34;1013.41;5;0;0
2022-10-02 02:53:01;8.45;1013.42;5;0;0
2022-10-02 02:54:01;8.59;1013.41;6;0;0
2022-10-02 02:55:01;8.36;1013.4;5;0;0
2022-10-02 02:56:01;8.51;1013.38;6;0;0
2022-10-02 02:57:01;8.34;1013.44;4;0;0
2022-10-02 02:58:02;8.5;1013.43;4;0;0
2022-10-02 02:59:01;8.52;1013.52;5;0;0
2022-10-02 03:00:01;8.38;1013.49;4;0;0
2022-10-02 03:01:01;8.32;1013.51;6;0;0
2022-10-02 03:02:01;8.36;1013.46;5;0;0
2022-10-02 03:03:01;8.33;1013.52;5;0;0
2022-10-02 03:04:01;8.41;1013.42;5;0;0
2022-10-02 03:05:01;8.57;1013.44;5;0;0
2022-10-02 03:06:01;8.47;1013.47;4;0;0
2022-10-02 03:07:01;8.54;1013.53;5;0;0
2022-10-02 03:08:01;8.41;1013.54;5;0;0
2022-10-02 03:09:01;8.44;1013.63;4;0;0
2022-10-02 03:10:01;8.29;1013.58;5;0;0
2022-10-02 03:11:01;8.42;1013.62;5;0;0
2022-10-02 03:12:01;8.52;1013.62;5;0;0
2022-10-02 03:13:01;8.51;1013.64;5;0;0
2022-10-02 03:14:01;8.39;1013.63;5;0;0
2022-10-02 03:15:01;8.54;1013.63;5;0;0
2022-10-02 03:16:01;8.37;1013.64;5;0;0
2022-10-02 03:17:01;8.43;1013.62;6;0;0
2022-10-02 03:18:01;8.28;1013.66;5;0;0
2022-10-02 03:19:01;8.35;1013.69;5;0;0
2022-10-02 03:20:01;8.42;1013.7;4;0;0
2022-10-02 03:21:01;8.41;1013.71;5;0;0
2022-10-02 03:22:01;8.49;1013.73;5;0;0
2022-10-02 03:23:01;8.27;1013.75;5;0;0
2022-10-02 03:24:01;8.38;1013.73;5;0;0
2022-10-02 03:25:01;8.32;1013.71;5;0;0
2022-10-02 03:26:01;8.38;1013.74;5;0;0
2022-10-02 03:27:01;8.24;1013.76;5;0;0
2022-10-02 03:28:01;8.47;1013.77;5;0;0
2022-10-02 03:29:01;8.38;1013.75;4;0;0
2022-10-02 03:30:01;8.33;1013.76;4;0;0
2022-10-02 03:31:01;8.43;1013.76;5;0;0
2022-10-02 03:32:01;8.39;1013.8;4;0;0
2022-10-02 03:33:01;8.57;1013.87;5;0;0
2022-10-02 03:34:01;8.59;1013.82;5;0;0
2022-10-02 03:35:02;8.41;1013.83;5;0;0
2022-10-02 03:36:02;8.24;1013.85;4;0;0
2022-10-02 03:37:01;8.39;1013.9;4;0;0
2022-10-02 03:38:01;8.25;1013.83;4;0;0
2022-10-02 03:39:01;8.31;1013.8;4;0;0
2022-10-02 03:40:01;8.43;1013.83;5;0;0
2022-10-02 03:41:01;8.48;1013.88;5;0;0
2022-10-02 03:42:01;8.65;1013.89;4;0;0
2022-10-02 03:43:01;8.62;1013.89;5;0;0
2022-10-02 03:44:01;8.51;1013.86;5;0;0
2022-10-02 03:45:02;8.57;1013.84;6;0;0
2022-10-02 03:46:01;8.59;1013.85;6;0;0
2022-10-02 03:47:01;8.57;1013.86;5;0;0
2022-10-02 03:48:01;8.67;1013.93;4;0;0
2022-10-02 03:49:01;8.66;1013.94;4;0;0
2022-10-02 03:50:01;8.66;1013.97;5;0;0
2022-10-02 03:51:01;8.63;1013.97;5;0;0
2022-10-02 03:52:01;8.48;1014.01;5;0;0
2022-10-02 03:53:01;8.7;1013.97;5;0;0
2022-10-02 03:54:01;8.63;1013.98;5;0;0
2022-10-02 03:55:01;8.35;1014;4;0;0
2022-10-02 03:56:01;8.36;1014.05;4;0;0
2022-10-02 03:57:02;8.5;1014.16;4;0;0
2022-10-02 03:58:01;8.59;1014.1;5;0;0
2022-10-02 03:59:01;8.67;1014.16;4;0;0
2022-10-02 04:00:01;8.63;1014.2;5;0;0
2022-10-02 04:01:01;8.4;1014.13;5;0;0
2022-10-02 04:02:01;8.49;1014.1;5;0;0
2022-10-02 04:03:01;8.61;1014.14;5;0;0
2022-10-02 04:04:01;8.58;1014.12;4;0;0
2022-10-02 04:05:01;8.5;1014.07;5;0;0
2022-10-02 04:06:01;8.62;1014.07;5;0;0
2022-10-02 04:07:01;8.52;1014.08;5;0;0
2022-10-02 04:08:01;8.52;1014.09;5;0;0
2022-10-02 04:09:01;8.4;1014.06;4;0;0
2022-10-02 04:10:01;8.44;1014.07;4;0;0
2022-10-02 04:11:01;8.45;1014.06;5;0;0
2022-10-02 04:12:01;8.45;1014.02;5;0;0
2022-10-02 04:13:01;8.59;1014.04;5;0;0
2022-10-02 04:14:01;8.71;1013.96;5;0;0
2022-10-02 04:15:01;8.69;1013.97;4;0;0
2022-10-02 04:16:01;8.65;1014.03;3;0;0
2022-10-02 04:17:01;8.62;1013.99;5;0;0
2022-10-02 04:18:01;8.64;1014.03;5;0;0
2022-10-02 04:19:01;8.78;1014.08;5;0;0
2022-10-02 04:20:01;8.7;1014.03;6;0;0
2022-10-02 04:21:01;8.71;1014.09;5;0;0
2022-10-02 04:22:01;8.71;1014.12;5;0;0
2022-10-02 04:23:01;8.79;1014.14;5;0;0
2022-10-02 04:24:01;8.84;1014.11;6;0;0
2022-10-02 04:25:01;8.92;1014.03;5;0;0
2022-10-02 04:26:01;8.76;1014.1;5;0;0
2022-10-02 04:27:01;8.98;1014.1;5;0;0
2022-10-02 04:28:01;8.7;1014.07;5;0;0
2022-10-02 04:29:01;8.82;1014.05;6;0;0
2022-10-02 04:30:01;8.79;1014.08;4;0;0
2022-10-02 04:31:01;8.68;1014.1;5;0;0
2022-10-02 04:32:01;8.73;1014.07;5;0;0
2022-10-02 04:33:01;8.82;1014.17;5;0;0
2022-10-02 04:34:01;8.94;1014.18;5;0;0
2022-10-02 04:35:01;8.81;1014.17;5;0;0
2022-10-02 04:36:02;8.9;1014.19;5;0;0
2022-10-02 04:37:01;8.93;1014.24;6;0;0
2022-10-02 04:38:01;8.94;1014.18;7;0;0
2022-10-02 04:39:01;8.89;1014.19;5;0;0
2022-10-02 04:40:01;8.83;1014.15;5;0;0
2022-10-02 04:41:01;8.94;1014.16;5;0;0
2022-10-02 04:42:02;9.06;1014.18;5;0;0
2022-10-02 04:43:01;9.04;1014.15;5;0;0
2022-10-02 04:44:01;8.87;1014.21;5;0;0
2022-10-02 04:45:01;8.98;1014.25;5;0;0
2022-10-02 04:46:01;8.96;1014.19;5;0;0
2022-10-02 04:47:01;8.89;1014.14;5;0;0
2022-10-02 04:48:01;9.01;1014.2;5;0;0
2022-10-02 04:49:01;9.05;1014.24;5;0;0
2022-10-02 04:50:01;8.95;1014.18;5;0;0
2022-10-02 04:51:01;8.97;1014.24;6;0;0
2022-10-02 04:52:02;9.01;1014.23;5;0;0
2022-10-02 04:53:01;8.98;1014.18;5;0;0
2022-10-02 04:54:01;8.98;1014.24;6;0;0
2022-10-02 04:55:01;9.04;1014.23;5;0;0
2022-10-02 04:56:01;8.95;1014.26;5;0;0
2022-10-02 04:57:01;9;1014.2;5;0;0
2022-10-02 04:58:01;8.99;1014.2;5;0;0
2022-10-02 04:59:01;8.93;1014.19;4;0;0
2022-10-02 05:00:01;8.97;1014.22;4;0;0
2022-10-02 05:01:01;8.88;1014.24;4;0;0
2022-10-02 05:02:01;8.97;1014.23;4;0;0
2022-10-02 05:03:01;9.01;1014.3;5;0;0
2022-10-02 05:04:01;9.12;1014.26;4;0;0
2022-10-02 05:05:01;9.05;1014.35;5;0;0
2022-10-02 05:06:01;8.95;1014.31;5;0;0
2022-10-02 05:07:01;9.02;1014.38;5;0;0
2022-10-02 05:08:01;9.05;1014.32;5;0;0
2022-10-02 05:09:01;8.98;1014.35;5;0;0
2022-10-02 05:10:01;9;1014.35;5;0;0
2022-10-02 05:11:01;9.09;1014.32;5;0;0
2022-10-02 05:12:02;8.99;1014.29;5;0;0
2022-10-02 05:13:01;9.06;1014.35;6;0;0
2022-10-02 05:14:01;9.01;1014.22;6;0;0
2022-10-02 05:15:01;9.02;1014.24;5;0;0
2022-10-02 05:16:02;9;1014.21;6;0;0
2022-10-02 05:17:01;8.97;1014.26;6;0;0
2022-10-02 05:18:01;9.1;1014.28;6;0;0
2022-10-02 05:19:01;9;1014.27;6;0;0
2022-10-02 05:20:01;8.99;1014.3;6;0;0
2022-10-02 05:21:01;9.17;1014.32;6;0;0
2022-10-02 05:22:01;9.03;1014.29;6;0;0
2022-10-02 05:23:01;8.95;1014.32;6;0;0
2022-10-02 05:24:01;9;1014.29;6;0;0
2022-10-02 05:25:01;9.12;1014.32;6;0;0
2022-10-02 05:26:01;9.05;1014.26;6;0;0
2022-10-02 05:27:01;8.97;1014.26;5;0;0
2022-10-02 05:28:02;9.08;1014.31;5;0;0
2022-10-02 05:29:01;8.97;1014.33;6;0;0
2022-10-02 05:30:01;9.01;1014.26;5;0;0
2022-10-02 05:31:01;9.06;1014.21;5;0;0
2022-10-02 05:32:01;9.22;1014.18;6;0;0
2022-10-02 05:33:01;9.08;1014.25;5;0;0
2022-10-02 05:34:01;9.02;1014.29;6;0;0
2022-10-02 05:35:01;8.98;1014.35;5;0;0
2022-10-02 05:36:01;8.96;1014.28;6;0;0
2022-10-02 05:37:01;9.05;1014.22;6;0;0
2022-10-02 05:38:01;9.08;1014.27;6;0;0
2022-10-02 05:39:01;8.97;1014.19;5;0;0
2022-10-02 05:40:01;8.96;1014.15;6;0;0
2022-10-02 05:41:01;9.14;1014.21;5;0;0
2022-10-02 05:42:01;8.99;1014.16;6;0;0
2022-10-02 05:43:01;9.01;1014.13;5;0;0
2022-10-02 05:44:01;8.87;1014.08;6;0;0
2022-10-02 05:45:01;8.95;1014.2;6;0;0
2022-10-02 05:46:01;9.02;1014.21;6;0;0
2022-10-02 05:47:01;9.04;1014.16;6;0;0
2022-10-02 05:48:01;8.87;1014.17;5;0;0
2022-10-02 05:49:01;9.06;1014.18;6;0;0
2022-10-02 05:50:01;8.98;1014.24;6;0;0
2022-10-02 05:51:01;9.07;1014.24;5;0;0
2022-10-02 05:52:01;9.02;1014.23;6;0;0
2022-10-02 05:53:02;9.01;1014.19;6;0;0
2022-10-02 05:54:01;8.89;1014.13;6;0;0
2022-10-02 05:55:01;9.02;1014.29;6;0;0
2022-10-02 05:56:01;8.97;1014.28;5;0;0
2022-10-02 05:57:01;9.02;1014.23;5;0;0
2022-10-02 05:58:01;9.06;1014.24;5;0;0
2022-10-02 05:59:01;9.05;1014.23;6;0;0
2022-10-02 06:00:01;9.08;1014.24;7;0;0
2022-10-02 06:01:01;9.07;1014.28;6;0;0
2022-10-02 06:02:01;9.11;1014.23;6;0;0
2022-10-02 06:03:01;9.07;1014.2;5;0;0
2022-10-02 06:04:01;8.94;1014.25;6;0;0
2022-10-02 06:05:01;9.03;1014.32;5;0;0
2022-10-02 06:06:01;9.01;1014.36;7;0;0
2022-10-02 06:07:01;9.13;1014.3;7;0;0
2022-10-02 06:08:01;9.03;1014.33;6;0;0
2022-10-02 06:09:04;0;1014.33;5;0;0
2022-10-02 06:10:01;9.16;1014.41;5;0;0
2022-10-02 06:11:01;9.06;1014.36;5;0;0
2022-10-02 06:12:01;9.02;1014.3;6;0;0
2022-10-02 06:13:01;9.12;1014.36;6;0;0
2022-10-02 06:14:01;9.05;1014.35;5;0;0
2022-10-02 06:15:01;9.12;1014.36;5;0;0
2022-10-02 06:16:01;9.1;1014.34;5;0;0
2022-10-02 06:17:01;9.06;1014.28;7;0;0
2022-10-02 06:18:01;9.12;1014.37;6;0;0
2022-10-02 06:19:01;9.06;1014.31;6;0;0
2022-10-02 06:20:01;9.09;1014.37;6;0;0
2022-10-02 06:21:01;9.12;1014.34;6;0;0
2022-10-02 06:22:02;9;1014.42;6;0;0
2022-10-02 06:23:01;9.2;1014.45;7;0;0
2022-10-02 06:24:01;9.22;1014.34;6;0;0
2022-10-02 06:25:01;9.16;1014.3;5;0;0
2022-10-02 06:26:01;8.94;1014.39;5;0;0
2022-10-02 06:27:01;9.1;1014.37;6;0;0
2022-10-02 06:28:01;8.91;1014.36;6;0;0
2022-10-02 06:29:01;8.83;1014.44;6;0;0
2022-10-02 06:30:02;9.1;1014.46;6;0;0
2022-10-02 06:31:01;9.04;1014.49;7;0;0
2022-10-02 06:32:01;8.99;1014.41;6;0;0
2022-10-02 06:33:01;8.95;1014.39;6;0;0
2022-10-02 06:34:01;9.1;1014.41;7;0;0
2022-10-02 06:35:01;8.9;1014.44;7;0;0
2022-10-02 06:36:02;8.91;1014.41;8;0;0
2022-10-02 06:37:01;8.88;1014.45;8;0;0
2022-10-02 06:38:01;8.85;1014.5;8;0;0
2022-10-02 06:39:01;8.97;1014.52;9;0;0
2022-10-02 06:40:01;8.95;1014.53;12;0;0
2022-10-02 06:41:01;8.99;1014.49;14;0;0
2022-10-02 06:42:01;8.96;1014.48;15;0;0
2022-10-02 06:43:01;8.92;1014.5;17;0;0
2022-10-02 06:44:01;8.92;1014.48;25;0;0
2022-10-02 06:45:01;8.87;1014.47;36;0;0
2022-10-02 06:46:01;8.9;1014.55;42;0;0
2022-10-02 06:47:01;8.86;1014.54;45;0;0
2022-10-02 06:48:02;8.68;1014.51;53;0;0
2022-10-02 06:49:01;8.8;1014.51;61;0;0
2022-10-02 06:50:01;8.62;1014.59;79;0;0
2022-10-02 06:51:01;8.81;1014.57;87;0;0
2022-10-02 06:52:01;8.6;1014.62;105;0;0
2022-10-02 06:53:01;8.79;1014.58;129;0;0
2022-10-02 06:54:01;8.77;1014.55;139;0;0
2022-10-02 06:55:01;8.64;1014.56;145;0;0
2022-10-02 06:56:01;8.73;1014.62;180;0;0
2022-10-02 06:57:01;8.72;1014.58;204;0;0
2022-10-02 06:58:01;8.63;1014.6;229;0;0
2022-10-02 06:59:01;8.39;1014.54;245;0;0
2022-10-02 07:00:01;8.52;1014.59;263;0;0
2022-10-02 07:01:01;8.45;1014.6;285;0;0
2022-10-02 07:02:01;8.49;1014.58;304;0;0
2022-10-02 07:03:01;8.44;1014.56;322;0;0
2022-10-02 07:04:01;8.47;1014.59;337;0;0
2022-10-02 07:05:01;8.32;1014.6;351;0;0
2022-10-02 07:06:01;8.18;1014.57;365;0;0
2022-10-02 07:07:01;8.31;1014.54;396;0;0
2022-10-02 07:08:01;8.32;1014.57;409;0;0
2022-10-02 07:09:01;8.26;1014.53;421;0;0
2022-10-02 07:10:01;8.31;1014.57;438;0;0
2022-10-02 07:11:01;8.21;1014.68;457;0;0
2022-10-02 07:12:01;8.17;1014.68;480;0;0
2022-10-02 07:13:01;8.04;1014.69;498;0;0
2022-10-02 07:14:01;8.19;1014.71;504;0;0
2022-10-02 07:15:01;8.34;1014.67;533;0;0
2022-10-02 07:16:01;7.99;1014.65;558;0;0
2022-10-02 07:17:02;8.19;1014.65;566;0;0
2022-10-02 07:18:01;8.1;1014.62;570;0;0
2022-10-02 07:19:01;8.1;1014.62;606;0;0
2022-10-02 07:20:01;8.03;1014.63;663;0;0
2022-10-02 07:21:01;8.14;1014.61;747;0;0
2022-10-02 07:22:02;7.99;1014.64;834;0;0
2022-10-02 07:23:01;8.07;1014.69;900;0;0
2022-10-02 07:24:01;8.18;1014.7;870;0;0
2022-10-02 07:25:01;7.92;1014.63;872;0;0
2022-10-02 07:26:02;8.15;1014.57;824;0;0
2022-10-02 07:27:01;8.21;1014.57;849;0;0
2022-10-02 07:28:01;7.95;1014.62;895;0;0
2022-10-02 07:29:02;8.03;1014.62;916;0;0
2022-10-02 07:30:01;7.85;1014.6;935;0;0
2022-10-02 07:31:01;7.91;1014.63;940;0;0
2022-10-02 07:32:02;7.92;1014.64;1001;0;0
2022-10-02 07:33:01;7.95;1014.64;1019;0;0
2022-10-02 07:34:01;8.04;1014.62;1036;0;0
2022-10-02 07:35:01;8.06;1014.61;1092;0;0
2022-10-02 07:36:02;8;1014.64;1138;0;0
2022-10-02 07:37:01;7.91;1014.62;1132;0;0
2022-10-02 07:38:01;7.82;1014.64;1105;0;0
2022-10-02 07:39:01;7.86;1014.64;1109;0;0
2022-10-02 07:40:01;7.89;1014.67;1120;0;0
2022-10-02 07:41:01;7.84;1014.67;1132;0;0
2022-10-02 07:42:01;7.96;1014.61;1150;0;0
2022-10-02 07:43:01;7.88;1014.65;1162;0;0
2022-10-02 07:44:01;7.98;1014.64;1177;0;0
2022-10-02 07:45:01;7.93;1014.58;1191;0;0
2022-10-02 07:46:01;7.83;1014.51;1202;0;0
2022-10-02 07:47:01;8.02;1014.61;1216;0;0
2022-10-02 07:48:01;8.01;1014.62;1233;0;0
2022-10-02 07:49:02;8.06;1014.61;1252;0;0
2022-10-02 07:50:01;8.01;1014.6;1266;0;0
2022-10-02 07:51:01;8.02;1014.63;1288;0;0
2022-10-02 07:52:01;7.98;1014.71;1338;0;0
2022-10-02 07:53:01;7.96;1014.73;1337;0;0
2022-10-02 07:54:01;7.89;1014.68;1356;0;0
2022-10-02 07:55:01;7.93;1014.68;1331;0;0
2022-10-02 07:56:01;8.08;1014.73;1333;0;0
2022-10-02 07:57:02;7.9;1014.75;1349;0;0
2022-10-02 07:58:01;8.06;1014.82;1405;0;0
2022-10-02 07:59:01;8.26;1014.85;1411;0;0
2022-10-02 08:00:01;8.04;1014.91;1400;0;0
2022-10-02 08:01:02;8.22;1014.93;1405;0;0
2022-10-02 08:02:01;8.36;1014.89;1419;0;0
2022-10-02 08:03:01;8.3;1014.92;1441;0;0
2022-10-02 08:04:01;8.38;1014.94;1433;0;0
2022-10-02 08:05:02;8.56;1014.96;1445;0;0
2022-10-02 08:06:02;8.57;1014.9;1437;0;0
2022-10-02 08:07:01;8.75;1014.82;1437;0;0
2022-10-02 08:08:01;8.8;1014.84;1444;0;0
2022-10-02 08:09:01;8.61;1014.88;1442;0;0
2022-10-02 08:10:01;8.78;1014.86;1446;0;0
2022-10-02 08:11:01;8.74;1014.8;1454;0;0
2022-10-02 08:12:01;8.7;1014.77;1464;0;0
2022-10-02 08:13:02;8.71;1014.91;1454;0;0
2022-10-02 08:14:01;8.68;1014.92;1450;0;0
2022-10-02 08:15:01;8.69;1014.97;1452;0;0
2022-10-02 08:16:01;8.59;1014.89;1464;0;0
2022-10-02 08:17:01;8.75;1014.99;1480;0;0
2022-10-02 08:18:01;8.85;1014.96;1501;0;0
2022-10-02 08:19:01;8.78;1015.05;1525;0;0
2022-10-02 08:20:02;8.72;1015.02;1510;0;0
2022-10-02 08:21:01;8.89;1014.95;1501;0;0
2022-10-02 08:22:01;8.94;1014.93;1496;0;0
2022-10-02 08:23:01;8.98;1014.98;1407;0;0
2022-10-02 08:24:01;9.05;1014.94;1403;0;0
2022-10-02 08:25:01;8.94;1014.84;1410;0;0
2022-10-02 08:26:02;9.05;1014.9;1416;0;0
2022-10-02 08:27:01;8.99;1014.99;1357;0;0
2022-10-02 08:28:01;8.9;1014.93;1437;0;0
2022-10-02 08:29:01;9.09;1014.84;1448;0;0
2022-10-02 08:30:02;9.17;1014.92;1441;0;0
2022-10-02 08:31:01;9.11;1014.92;1390;0;0
2022-10-02 08:32:01;9.14;1014.88;1433;0;0
2022-10-02 08:33:01;9.17;1014.85;1391;0;0
2022-10-02 08:34:02;9.05;1014.9;1462;0;0
2022-10-02 08:35:01;9.18;1014.9;1474;0;0
2022-10-02 08:36:01;9.21;1014.83;1486;0;0
2022-10-02 08:37:01;9.09;1014.84;1496;0;0
2022-10-02 08:38:01;9.26;1014.89;1498;0;0
2022-10-02 08:39:01;9.32;1014.95;1505;0;0
2022-10-02 08:40:02;9.32;1014.89;1513;0;0
2022-10-02 08:41:01;9.38;1014.92;1525;0;0
2022-10-02 08:42:01;9.5;1014.91;1544;0;0
2022-10-02 08:43:01;9.39;1014.98;1560;0;0
2022-10-02 08:44:01;9.23;1014.92;1589;0;0
2022-10-02 08:45:01;9.31;1015;1590;0;0
2022-10-02 08:46:01;9.43;1015.06;1574;0;0
2022-10-02 08:47:02;9.51;1014.98;1557;0;0
2022-10-02 08:48:01;9.5;1014.98;1570;0;0
2022-10-02 08:49:01;9.51;1014.96;1586;0;0
2022-10-02 08:50:01;9.37;1015;1543;0;0
2022-10-02 08:51:01;9.51;1015;1539;0;0
2022-10-02 08:52:01;9.57;1015.06;1497;0;0
2022-10-02 08:53:01;9.54;1015.08;1568;0;0
2022-10-02 08:54:01;9.58;1015.09;1573;0;0
2022-10-02 08:55:01;9.69;1015.12;1571;0;0
2022-10-02 08:56:01;9.8;1015.11;1567;0;0
2022-10-02 08:57:01;9.72;1015.11;1556;0;0
2022-10-02 08:58:01;9.79;1015.18;1551;0;0
2022-10-02 08:59:02;9.79;1015.19;1546;0;0
2022-10-02 09:00:01;9.95;1015.08;1548;0;0
2022-10-02 09:01:02;9.89;1015.06;1557;0;0
2022-10-02 09:02:01;9.87;1015.06;1554;0;0
2022-10-02 09:03:01;9.88;1015.05;1559;0;0
2022-10-02 09:04:01;9.89;1015.05;1562;0;0
2022-10-02 09:05:01;9.91;1015.06;1555;0;0
2022-10-02 09:06:01;9.87;1015.01;1549;0;0
2022-10-02 09:07:01;9.93;1014.91;1545;0;0
2022-10-02 09:08:01;9.87;1014.94;1548;0;0
2022-10-02 09:09:01;9.91;1015.04;1552;0;0
2022-10-02 09:10:01;10.03;1015.09;1553;0;0
2022-10-02 09:11:01;10.11;1015.17;1553;0;0
2022-10-02 09:12:01;10.14;1015.1;1554;0;0
2022-10-02 09:13:01;10.1;1015.03;1557;0;0
2022-10-02 09:14:01;9.93;1014.97;1559;0;0
2022-10-02 09:15:01;10.22;1014.94;1562;0;0
2022-10-02 09:16:01;10.16;1015.05;1568;0;0
2022-10-02 09:17:02;10.24;1015.04;1574;0;0
2022-10-02 09:18:01;10.11;1014.94;1575;0;0
2022-10-02 09:19:01;10.25;1014.86;1578;0;0
2022-10-02 09:20:01;10.14;1014.86;1588;0;0
2022-10-02 09:21:01;10.32;1014.86;1592;0;0
2022-10-02 09:22:02;10.29;1014.87;1590;0;0
2022-10-02 09:23:01;10.16;1014.93;1587;0;0
2022-10-02 09:24:01;10.23;1014.8;1587;0;0
2022-10-02 09:25:01;10.33;1014.81;1591;0;0
2022-10-02 09:26:01;10.28;1014.83;1604;0;0
2022-10-02 09:27:01;10.25;1014.8;1613;0;0
2022-10-02 09:28:01;10.33;1014.84;1622;0;0
2022-10-02 09:29:01;10.39;1014.77;1635;0;0
2022-10-02 09:30:01;10.35;1014.72;1646;0;0
2022-10-02 09:31:01;10.39;1014.78;1664;0;0
2022-10-02 09:32:01;10.33;1014.76;1693;0;0
2022-10-02 09:33:01;10.29;1014.78;1710;0;0
2022-10-02 09:34:01;10.44;1014.82;1717;0;0
2022-10-02 09:35:01;10.42;1014.89;1719;0;0
2022-10-02 09:36:02;10.51;1014.87;1719;0;0
2022-10-02 09:37:01;10.39;1014.86;1718;0;0
2022-10-02 09:38:01;10.43;1014.98;1728;0;0
2022-10-02 09:39:01;10.48;1015.09;1754;0;0
2022-10-02 09:40:01;10.5;1015.01;1772;0;0
2022-10-02 09:41:01;10.59;1014.95;1771;0;0
2022-10-02 09:42:01;10.59;1014.92;1752;0;0
2022-10-02 09:43:01;10.56;1014.94;1735;0;0
2022-10-02 09:44:01;10.66;1014.94;1731;0;0
2022-10-02 09:45:01;10.72;1014.98;1735;0;0
2022-10-02 09:46:01;10.7;1014.9;1715;0;0
2022-10-02 09:47:01;10.77;1014.97;1675;0;0
2022-10-02 09:48:01;10.82;1014.94;1660;0;0
2022-10-02 09:49:01;10.68;1014.86;1656;0;0
2022-10-02 09:50:01;10.72;1014.95;1651;0;0
2022-10-02 09:51:01;10.74;1014.88;1648;0;0
2022-10-02 09:52:01;10.76;1014.85;1653;0;0
2022-10-02 09:53:01;10.89;1014.82;1663;0;0
2022-10-02 09:54:01;10.91;1014.86;1676;0;0
2022-10-02 09:55:01;10.99;1014.9;1684;0;0
2022-10-02 09:56:01;10.86;1014.9;1698;0;0
2022-10-02 09:57:01;10.86;1014.9;1713;0;0
2022-10-02 09:58:01;11.14;1014.89;1748;0;0
2022-10-02 09:59:01;11.2;1014.92;1778;0;0
2022-10-02 10:00:01;11.09;1014.95;1820;0;0